Satellite: NOAA-12
Catalog number: 21263
Epoch time:      06068.43402495
Element set:     515
Inclination:      098.7261 deg
RA of node:       062.1622 deg
Eccentricity:    0.0013221
Arg of perigee:   021.4896 deg
Mean anomaly:     338.6857 deg
Mean motion:   14.25484988 rev/day
Decay rate:       1.73e-06 rev/day^2
Epoch rev:           77003
Checksum:              301

Satellite: MET-3/5
Catalog number: 21655
Epoch time:      06068.31350385
Element set:      56
Inclination:      082.5586 deg
RA of node:       331.3650 deg
Eccentricity:    0.0012279
Arg of perigee:   294.1726 deg
Mean anomaly:     065.8147 deg
Mean motion:   13.17003815 rev/day
Decay rate:        5.1e-07 rev/day^2
Epoch rev:           70021
Checksum:              280

Satellite: MET-2/21
Catalog number: 22782
Epoch time:      06067.51341869
Element set:     448
Inclination:      082.5455 deg
RA of node:       051.3082 deg
Eccentricity:    0.0023867
Arg of perigee:   100.9099 deg
Mean anomaly:     259.4759 deg
Mean motion:   13.83602366 rev/day
Decay rate:        7.5e-07 rev/day^2
Epoch rev:           63212
Checksum:              316

Satellite: OKEAN-4
Catalog number: 23317
Epoch time:      06068.38231992
Element set:     884
Inclination:      082.5422 deg
RA of node:       010.0888 deg
Eccentricity:    0.0022309
Arg of perigee:   348.3744 deg
Mean anomaly:     011.6952 deg
Mean motion:   14.82318778 rev/day
Decay rate:       2.34e-06 rev/day^2
Epoch rev:           61519
Checksum:              308

Satellite: NOAA-14
Catalog number: 23455
Epoch time:      06068.43158116
Element set:      28
Inclination:      099.0523 deg
RA of node:       125.5838 deg
Eccentricity:    0.0008901
Arg of perigee:   336.5139 deg
Mean anomaly:     023.5666 deg
Mean motion:   14.13640642 rev/day
Decay rate:        9.0e-07 rev/day^2
Epoch rev:           57697
Checksum:              304

Satellite: SICH-1
Catalog number: 23657
Epoch time:      06068.71433569
Element set:     690
Inclination:      082.5315 deg
RA of node:       150.6695 deg
Eccentricity:    0.0023404
Arg of perigee:   334.1687 deg
Mean anomaly:     025.8372 deg
Mean motion:   14.81319688 rev/day
Decay rate:       1.31e-06 rev/day^2
Epoch rev:           56726
Checksum:              315

Satellite: NOAA-15
Catalog number: 25338
Epoch time:      06068.21790419
Element set:     428
Inclination:      098.5174 deg
RA of node:       073.5088 deg
Eccentricity:    0.0010052
Arg of perigee:   310.2118 deg
Mean anomaly:     049.8182 deg
Mean motion:   14.24565776 rev/day
Decay rate:       -1.3e-07 rev/day^2
Epoch rev:           40648
Checksum:              300

Satellite: RESURS
Catalog number: 25394
Epoch time:      06068.44517541
Element set:     319
Inclination:      098.5032 deg
RA of node:       134.6533 deg
Eccentricity:    0.0002342
Arg of perigee:   099.6911 deg
Mean anomaly:     260.4533 deg
Mean motion:   14.24095763 rev/day
Decay rate:       -3.5e-07 rev/day^2
Epoch rev:           39820
Checksum:              290

Satellite: FENGYUN1
Catalog number: 25730
Epoch time:      06067.55620655
Element set:     668
Inclination:      098.6223 deg
RA of node:       063.9302 deg
Eccentricity:    0.0015387
Arg of perigee:   067.8933 deg
Mean anomaly:     292.3872 deg
Mean motion:   14.11806678 rev/day
Decay rate:       -7.6e-07 rev/day^2
Epoch rev:           35181
Checksum:              321

Satellite: OKEAN-0
Catalog number: 25860
Epoch time:      06068.64972570
Element set:     688
Inclination:      097.7396 deg
RA of node:       087.5938 deg
Eccentricity:    0.0001895
Arg of perigee:   074.1202 deg
Mean anomaly:     286.0209 deg
Mean motion:   14.73342016 rev/day
Decay rate:        3.4e-07 rev/day^2
Epoch rev:           35709
Checksum:              323

Satellite: NOAA-16
Catalog number: 26536
Epoch time:      06068.18469053
Element set:     783
Inclination:      099.0554 deg
RA of node:       033.6873 deg
Eccentricity:    0.0011358
Arg of perigee:   043.4616 deg
Mean anomaly:     316.7480 deg
Mean motion:   14.12320109 rev/day
Decay rate:        1.6e-07 rev/day^2
Epoch rev:           28146
Checksum:              298

Satellite: NOAA-17
Catalog number: 27453
Epoch time:      06068.44979266
Element set:     806
Inclination:      098.6293 deg
RA of node:       142.5695 deg
Eccentricity:    0.0011670
Arg of perigee:   009.8940 deg
Mean anomaly:     350.2568 deg
Mean motion:   14.23757367 rev/day
Decay rate:       2.32e-06 rev/day^2
Epoch rev:           19258
Checksum:              340

Satellite: NOAA-18
Catalog number: 28654
Epoch time:      06068.21897849
Element set:     393
Inclination:      098.7778 deg
RA of node:       013.6848 deg
Eccentricity:    0.0014610
Arg of perigee:   141.2646 deg
Mean anomaly:     218.9577 deg
Mean motion:   14.10935351 rev/day
Decay rate:      -1.64e-06 rev/day^2
Epoch rev:            4128
Checksum:              337

/EX
SB KEPS @ AMSAT  $ORB06068.M
Orbital Elements  06068.MISC

HR AMSAT ORBITAL ELEMENTS FOR MANNED AND MISCELLANEOUS SATELLITES
FROM WA5QGD FORT WORTH,TX March 9, 2006
Send SUBSCRIBE KEPS/UNSUBSCRIBE KEPS to majordomo@amsat.org only
BID: ORB06068.M
TO ALL RADIO AMATEURS BT

Satellite: HUBBLE
Catalog number: 20580
Epoch time:      06067.89383412
Element set:     562
Inclination:      028.4699 deg
RA of node:       343.6609 deg
Eccentricity:    0.0004122
Arg of perigee:   199.2133 deg
Mean anomaly:     160.8349 deg
Mean motion:   14.99977291 rev/day
Decay rate:       4.50e-06 rev/day^2
Epoch rev:           67002
Checksum:              313

